Weather History for Harrison, AR

Change the Weather History Date:

Saturday, March 16, 2013

  Actual Average Record
Temperature  
Mean Temperature 63 °F 49 °F  
Max Temperature 77 °F 60 °F 82 °F (1982)
Min Temperature 48 °F 38 °F 15 °F (1900)
Degree Days  
Heating Degree Days 2 16  
Month to date heating degree days 326 298  
Since 1 July heating degree days 3230 3470  
Cooling Degree Days 0 0  
Month to date cooling degree days 6 0  
Year to date cooling degree days 7 0  
Growing Degree Days 14 (Base 50)    
Moisture  
Dew Point 42 °F    
Average Humidity 50    
Maximum Humidity 66    
Minimum Humidity 33    
Precipitation  
Precipitation 0.00 in 0.13 in 2.28 in (2014)
Month to date precipitation 1.36 1.84  
Year to date precipitation 7.98 7.04  
Snow  
Snow 0.00 in 0.10 in 7.50 in (1892)
Month to date snowfall 0.3 1.6  
Since 1 July snowfall 3.1 10.8  
Snow Depth 0.00 in    
Sea Level Pressure  
Sea Level Pressure 29.79 in    
Wind  
Wind Speed 9 mph (NNW)    
Max Wind Speed 20 mph    
Max Gust Speed 30 mph    
Visibility 10 miles    
Events      
T = Trace of Precipitation, MM = Missing Value Source: NWS Daily Summary

Daily Weather History Graph

Daily Weather History Graph

Search for Another Location

Airport:

Trip Planner

Search our weather history database for the weather conditions in past years. The results will help you decide how hot, cold, wet, or windy it might be!

Date:

Astronomy

Mar. 16, 2013 Rise Set
Actual Time 7:21 AM CDT 7:21 PM CDT
Civil Twilight 6:56 AM CDT 7:46 PM CDT
Nautical Twilight 6:26 AM CDT 8:16 PM CDT
Astronomical Twilight 5:56 AM CDT 8:46 PM CDT
Moon 10:00 AM CDT (3/16) No Moon Set
Length of Visible Light 12h 50m
Length of Day
11h 59m
Waxing Crescent, 23% of the Moon is Illuminated
Mar 16
Waxing Crescent
Mar 19
First Quarter
Mar 27
Full
Apr 2
Last Quarter
Apr 10
New

Hourly Weather History & Observations

Time (CDT) Temp. Dew Point Humidity Pressure Visibility Wind Dir Wind Speed Gust Speed Precip Events Conditions
12:53 AM 66.9 °F 42.1 °F 40% 29.75 in 10.0 mi SW 18.4 mph 26.5 mph N/A   Clear
1:53 AM 66.0 °F 41.0 °F 40% 29.75 in 10.0 mi SW 16.1 mph 28.8 mph N/A   Clear
2:53 AM 66.0 °F 39.9 °F 38% 29.74 in 10.0 mi SW 11.5 mph 23.0 mph N/A   Clear
3:53 AM 66.0 °F 39.9 °F 38% 29.73 in 10.0 mi SW 12.7 mph 20.7 mph N/A   Clear
4:53 AM 66.0 °F 41.0 °F 40% 29.72 in 10.0 mi WSW 13.8 mph 25.3 mph N/A   Clear
5:53 AM 66.0 °F 42.1 °F 42% 29.73 in 10.0 mi WSW 11.5 mph 27.6 mph N/A   Clear
6:53 AM 66.9 °F 43.0 °F 42% 29.75 in 10.0 mi WSW 16.1 mph 24.2 mph N/A   Clear
7:53 AM 62.1 °F 43.0 °F 50% 29.82 in 10.0 mi NNW 5.8 mph - N/A   Clear
8:53 AM 63.0 °F 43.0 °F 48% 29.83 in 10.0 mi West 5.8 mph - N/A   Clear
9:53 AM 66.9 °F 45.0 °F 45% 29.83 in 10.0 mi West 8.1 mph - N/A   Clear
10:53 AM 71.1 °F 45.0 °F 39% 29.82 in 10.0 mi Variable 6.9 mph 18.4 mph N/A   Clear
11:53 AM 71.1 °F 45.0 °F 39% 29.83 in 10.0 mi Calm Calm - N/A   Clear
12:53 PM 73.9 °F 46.0 °F 37% 29.82 in 10.0 mi WNW 9.2 mph - N/A   Clear
1:53 PM 75.0 °F 46.0 °F 36% 29.80 in 10.0 mi NE 5.8 mph - N/A   Clear
2:53 PM 75.0 °F 46.0 °F 36% 29.77 in 10.0 mi ESE 5.8 mph - N/A   Clear
3:53 PM 75.9 °F 46.0 °F 35% 29.75 in 10.0 mi East 5.8 mph - N/A   Clear
4:53 PM 77.0 °F 46.9 °F 34% 29.73 in 10.0 mi NE 8.1 mph - N/A   Scattered Clouds
5:53 PM 69.1 °F 44.1 °F 40% 29.75 in 10.0 mi ENE 13.8 mph - N/A   Partly Cloudy
6:53 PM 63.0 °F 41.0 °F 45% 29.78 in 10.0 mi NE 15.0 mph - N/A   Clear
7:53 PM 57.9 °F 39.9 °F 51% 29.82 in 10.0 mi NE 6.9 mph - N/A   Clear
8:53 PM 55.0 °F 39.0 °F 55% 29.85 in 10.0 mi NE 10.4 mph - N/A   Scattered Clouds
9:53 PM 52.0 °F 39.0 °F 61% 29.87 in 10.0 mi NE 6.9 mph - N/A   Mostly Cloudy
10:53 PM 50.0 °F 37.9 °F 63% 29.88 in 10.0 mi NE 6.9 mph - N/A   Overcast
11:53 PM 48.9 °F 37.9 °F 66% 29.88 in 10.0 mi ENE 4.6 mph - N/A   Overcast